Regional Weather Roundup
Issued by NWS Cleveland, OH

Home | Current Version | Previous Version | Text Only | Print | Product List | Glossary Off
Versions: 1 2 3 4 5 6 7 8 9 10 11 12 13 14 15 16 17 18 19 20 21 22 23 24 25 26 27 28 29 30 31 32 33 34 35 36 37 38 39 40 41 42 43 44 45 46 47 48 49 50

000
ASUS41 KCLE 280710
RWRCLE
OHIO REGIONAL WEATHER ROUNDUP
NATIONAL WEATHER SERVICE CLEVELAND, OH
300 AM EDT THU MAY 28 2015

NOTE: "FAIR" INDICATES FEW OR NO CLOUDS BELOW 12,000 FEET WITH NO
SIGNIFICANT WEATHER AND/OR OBSTRUCTIONS TO VISIBILITY.

OHZ001>008-015>018-024>027-034-035-043-044-280800-
   NORTHWEST OHIO

CITY           SKY/WX    TMP DP  RH WIND       PRES   REMARKS
DEFIANCE       CLEAR     57  55  93 CALM      30.17R
FINDLAY        FOG       62  60  93 CALM      30.15R VSB 1/2
TOLEDO EXPRESS CLEAR     57  56  96 CALM      30.15R
TOLEDO EXEC    CLEAR     62  57  83 CALM      30.16R
LIMA           MOCLDY    61  59  93 CALM      30.16R
$$

OHZ009>014-019>023-028>033-038-089-280800-
   NORTHEAST OHIO

CITY           SKY/WX    TMP DP  RH WIND       PRES   REMARKS
CLE-HOPKINS    MOCLDY    64  63  96 SW5       30.16R
CLE-LAKEFRONT  CLOUDY    67  62  84 SW7       30.13R
CUY CO. ARPT   NOT AVBL
LORAIN-ELYRIA  MOCLDY    63  63 100 W5        30.15R
ASHTABULA      CLOUDY    63  62  97 SW8       30.15R
AKRON-CANTON   LGT RAIN  66  63  90 CALM      30.15R
WOOSTER        CLOUDY    65  63  93 W3        30.16R
MANSFIELD      CLOUDY    65  64  97 W6        30.16S
YOUNGSTOWN     LGT RAIN  63  61  93 SW3       30.14S
$$

OHZ042-051>053-060>062-070>072-077>081-280800-
  SOUTHWEST OHIO

CITY           SKY/WX    TMP DP  RH WIND       PRES   REMARKS
CINC-COVINGTON CLOUDY    64  61  90 SW3       30.16S
CINC-LUNKEN    MOCLDY    62  61  96 CALM      30.17R
HAMILTON       MOCLDY    64  62  93 W3        30.17S
DAYTON         MOCLDY    66  62  87 W8        30.17R
WRIGHT-PAT AFB PTCLDY    67  62  85 SW6       30.15S
DAYTON GENERAL MOCLDY    66  61  84 SW5       30.15S
WILMINGTON     MOCLDY    62  58  86 SW3       30.16S
$$

OHZ036-037-039>041-045>050-054>059-063>069-073>076-082>088-280800-
  CENTRAL AND SOUTHEAST OHIO

CITY           SKY/WX    TMP DP  RH WIND       PRES   REMARKS
COLUMBUS       CLOUDY    67  59  75 W6        30.15R
OSU AIRPORT    MOCLDY    67  59  75 SW6       30.15R
BOLTON FIELD   NOT AVBL
RICKENBACK AFB MOCLDY    66  59  79 W7        30.15S
NEWARK         PTCLDY    64  59  83 CALM      30.15R
MARION         MOCLDY    67  64  90 W5        30.15S FOG
LANCASTER      MOCLDY    66  59  78 CALM      30.16R
ZANESVILLE     NOT AVBL
NEW PHILLY     MOCLDY    64  61  90 CALM      30.16R
$$


USA.gov is the U.S. government's official web portal to all federal, state and local government web resources and services.